Location: Gila Cliff Dwellings National Monument
(33.2240°N, 108.2417°W)
Time: 19:23:43
(UTC-06:00)

Cosmos 2322 Rocket - Visible Passes

Search period start: 03 August 2015 00:00
Search period end: 13 August 2015 00:00
Orbit: 831 x 853 km, 71.0° (Epoch: 02 August)

Date Brightness Start Highest point End Pass type
(mag) Time Alt. Az. Time Alt. Az. Time Alt. Az.
03 Aug 4.9 05:24:43 10° SE 05:27:32 15° E 05:30:42 10° ENE visible
04 Aug 4.9 05:10:04 10° SE 05:12:35 14° E 05:15:30 10° ENE visible
05 Aug 4.9 04:55:28 10° ESE 04:57:40 13° E 05:00:15 10° ENE visible
06 Aug 4.9 04:40:55 10° ESE 04:42:44 12° E 04:44:56 10° ENE visible
07 Aug 4.9 04:26:30 10° ESE 04:27:47 11° E 04:29:30 10° E visible
08 Aug 5.0 04:12:26 10° ESE 04:12:51 10° E 04:13:43 10° E visible
08 Aug 2.2 05:50:38 10° SSW 05:56:18 79° WNW 06:02:02 10° NNE visible
09 Aug 2.2 05:35:40 10° SSW 05:41:20 84° WNW 05:47:05 10° NNE visible
10 Aug 2.2 05:21:02 12° SSW 05:26:22 88° WNW 05:32:07 10° NNE visible
11 Aug 2.2 05:07:08 18° SSW 05:11:25 87° ESE 05:17:10 10° NNE visible
12 Aug 2.2 04:53:10 26° SSW 04:56:28 83° ESE 05:02:12 10° NNE visible
